Torna al catalogo

STARLINK-11748

AttivoComunicazioniVLEO
NORAD 64373·PAYLOAD·🇺🇸 United States

Lanciato Jun 13, 2025 da Cape Canaveral Space Force Station

Loading…

Prossimi Passaggi (prossime 24 ore)

TLE

AggiornatoSource: CelesTrak SupGP

Epoca: Sep 14, 2026, 22:35 UTC

1 64373C 25127D   26257.94145833  .00011810  00000+0  91662-4 0  2574
2 64373  43.0010  24.2343 0001796 269.2416  24.7477 15.70848937    18

Traccia STARLINK-11748 in tempo reale con AllMySat

Download on the App Store